Voltar ao catálogo

STARLINK-32522

AtivoComunicaçõesVLEO
NORAD 61981·PAYLOAD·🇺🇸 United States

Lançado Nov 14, 2024 de Cape Canaveral Space Force Station

Loading…

Próximas Passagens (próximas 24 horas)

TLE

AtualizadoSource: CelesTrak SupGP

Época: Sep 15, 2026, 03:06 UTC

1 61981C 24210Y   26258.12965278  .00025604  00000+0  92720-3 0  2584
2 61981  43.0025 189.9096 0001149 276.2154  62.6217 15.27572773    16

Acompanhe STARLINK-32522 em tempo real com AllMySat

Download on the App Store